• Join FlightAware (Why Join?)
  • Login
  • US Flag 
10:01AM EDT


 

Airport Tracker/Info


-or-


 

Live Flight TrackerFlight Track Log ✈ VH-ZPO ✈ 06-May-2013 ✈ YBBN / BNE - YBRK / ROK

Flight Track Log - Related Links

Times and Time Zones

All times are in EDT time to prevent confusion due to time zone crossing. See the VH-ZPO flight status page for this flight to view local times or setup timezone preferences in your user account.

Time Position Orientation Groundspeed Altitude Reporting Facility
EDT Latitude Longitude Course Direction KTS MPH feet Rate Location/Type
06:57PM -27.3985 153.1218 209° Southwest 133 153 700  Level Aus ATC (RADAR)
06:57PM -27.4169 153.1105 209° Southwest 145 167 1,800 1,500 Climbing Aus ATC (RADAR)
06:58PM -27.4356 153.1002 206° Southwest 172 198 2,100 1,680 Climbing Aus ATC (RADAR)
06:58PM -27.4648 153.0831 207° Southwest 199 229 3,500 2,580 Climbing Aus ATC (RADAR)
06:59PM -27.4915 153.0426 233° Southwest 222 255 5,600 3,000 Climbing Aus ATC (RADAR)
07:00PM -27.4708 153.0120 307° West 240 276 7,400 3,300 Climbing Aus ATC (RADAR)
07:00PM -27.4139 152.9998 349° North 242 278 10,000 2,520 Climbing Aus ATC (RADAR)
07:01PM -27.3871 153.0206 35° Northeast 264 304 10,500 2,100 Climbing Aus ATC (RADAR)
07:02PM -27.3101 153.0818 35° Northeast 317 365 13,200 2,460 Climbing Aus ATC (RADAR)
07:02PM -27.2737 153.1134 38° Northeast 330 380 14,400 2,400 Climbing Aus ATC (RADAR)
07:03PM -27.2436 153.1441 42° Northeast 346 398 15,400 2,520 Climbing Aus ATC (RADAR)
07:03PM -27.1953 153.1783 32° Northeast 359 413 16,900 2,640 Climbing Aus ATC (RADAR)
07:04PM -27.1153 153.1953 11° North 350 403 19,200 2,520 Climbing Aus ATC (RADAR)
07:05PM -27.0585 153.2080 11° North 356 410 20,500 2,220 Climbing Aus ATC (RADAR)
07:06PM -26.9840 153.2227 10° North 365 420 22,200 2,220 Climbing Aus ATC (RADAR)
07:06PM -26.9437 153.2127 347° North 355 409 23,100 2,100 Climbing Aus ATC (RADAR)
07:07PM -26.8585 153.1611 332° Northwest 344 396 25,200 1,920 Climbing Aus ATC (RADAR)
07:07PM -26.8223 153.1394 332° Northwest 347 399 25,900 1,680 Climbing Aus ATC (RADAR)
07:08PM -26.7852 153.1175 332° Northwest 353 406 26,600 1,620 Climbing Aus ATC (RADAR)
07:08PM -26.7252 153.0824 332° Northwest 361 415 27,700 1,680 Climbing Aus ATC (RADAR)
07:09PM -26.6575 153.0427 332° Northwest 362 417 29,000 1,860 Climbing Aus ATC (RADAR)
07:10PM -26.6049 153.0118 332° Northwest 361 415 30,200 2,100 Climbing Aus ATC (RADAR)
07:11PM -26.5395 152.9743 333° Northwest 347 399 31,900 1,740 Climbing Aus ATC (RADAR)
07:11PM -26.4964 152.9487 332° Northwest 345 397 32,400 240 Climbing Aus ATC (RADAR)
07:12PM -26.4107 152.8993 333° Northwest 345 397 32,300 -120 Descending Aus ATC (RADAR)
07:12PM -26.3756 152.8785 332° Northwest 343 395 32,300  Level Aus ATC (RADAR)
07:13PM -26.3393 152.8575 333° Northwest 348 400 32,300  Level Aus ATC (RADAR)
07:13PM -26.2869 152.8263 332° Northwest 364 419 32,300  Level Aus ATC (RADAR)
07:14PM -26.2079 152.7812 333° Northwest 385 443 32,300  Level Aus ATC (RADAR)
07:15PM -26.1507 152.7477 332° Northwest 395 455 32,300  Level Aus ATC (RADAR)
07:16PM -26.0757 152.7042 332° Northwest 402 463 32,300  Level Aus ATC (RADAR)
07:16PM -26.0341 152.6793 332° Northwest 405 466 32,300  Level Aus ATC (RADAR)
07:17PM -25.9164 152.6118 333° Northwest 405 466 32,300  Level Aus ATC (RADAR)
07:18PM -25.8658 152.5830 333° Northwest 406 467 32,300  Level Aus ATC (RADAR)
07:18PM -25.8239 152.5592 333° Northwest 404 465 32,300  Level Aus ATC (RADAR)
07:19PM -25.7652 152.5253 332° Northwest 406 467 32,300  Level Aus ATC (RADAR)
07:19PM -25.6979 152.4864 333° Northwest 407 468 32,300  Level Aus ATC (RADAR)
07:20PM -25.6387 152.4523 333° Northwest 409 471 32,300  Level Aus ATC (RADAR)
07:21PM -25.5533 152.4048 333° Northwest 410 472 32,300  Level Aus ATC (RADAR)
07:21PM -25.5107 152.3806 333° Northwest 411 473 32,300  Level Aus ATC (RADAR)
07:23PM -25.3593 152.2939 333° Northwest 408 470 32,300  Level Aus ATC (RADAR)
07:23PM -25.3088 152.2650 333° Northwest 407 468 32,300  Level Aus ATC (RADAR)
07:24PM -25.2496 152.2320 333° Northwest 406 467 32,300  Level Aus ATC (RADAR)
07:24PM -25.1911 152.1979 332° Northwest 405 466 32,300  Level Aus ATC (RADAR)
07:25PM -25.1317 152.1651 333° Northwest 407 468 32,300  Level Aus ATC (RADAR)
07:26PM -25.0561 152.1225 333° Northwest 405 466 32,300  Level Aus ATC (RADAR)
07:26PM -25.0181 152.0934 325° Northwest 400 460 32,300  Level Aus ATC (RADAR)
07:27PM -24.9299 151.9910 314° West 390 449 32,300  Level Aus ATC (RADAR)
07:28PM -24.8986 151.9544 313° West 391 450 32,300 -120 Level Aus ATC (RADAR)
07:28PM -24.8671 151.9184 314° West 389 448 32,200 -120 Descending Aus ATC (RADAR)
07:29PM -24.8167 151.8614 314° West 386 444 32,200  Level Aus ATC (RADAR)
07:29PM -24.7661 151.8044 314° West 387 445 32,200  Level Aus ATC (RADAR)
07:30PM -24.7159 151.7467 314° West 389 448 32,200  Level Aus ATC (RADAR)
07:31PM -24.6525 151.6758 315° West 387 445 32,200  Level Aus ATC (RADAR)
07:31PM -24.6212 151.6395 313° West 390 449 32,200 -60 Level Aus ATC (RADAR)
07:33PM -24.5143 151.5176 314° West 388 447 32,100 -600 Descending Aus ATC (RADAR)
07:33PM -24.4829 151.4814 314° West 392 451 31,100 -2,340 Descending Aus ATC (RADAR)
07:34PM -24.4379 151.4305 314° West 399 459 29,800 -2,160 Descending Aus ATC (RADAR)
07:35PM -24.3781 151.3637 314° West 411 473 28,200 -2,160 Descending Aus ATC (RADAR)
07:35PM -24.3261 151.3051 314° West 403 464 26,800 -2,160 Descending Aus ATC (RADAR)
07:36PM -24.2689 151.2411 314° West 391 450 25,200 -2,100 Descending Aus ATC (RADAR)
07:36PM -24.2376 151.2064 315° West 385 443 24,400 -2,040 Descending Aus ATC (RADAR)
07:38PM -24.1384 151.0944 314° West 383 441 21,600 -2,040 Descending Aus ATC (RADAR)
07:38PM -24.1012 151.0527 314° West 383 441 20,700 -2,100 Descending Aus ATC (RADAR)
07:39PM -24.0569 151.0051 316° Northwest 384 442 19,500 -2,100 Descending Aus ATC (RADAR)
07:40PM -23.9934 150.9532 323° Northwest 379 436 17,900 -2,040 Descending Aus ATC (RADAR)
07:40PM -23.9452 150.9148 324° Northwest 370 426 16,800 -2,040 Descending Aus ATC (RADAR)
07:41PM -23.8829 150.8651 324° Northwest 372 428 15,300 -2,040 Descending Aus ATC (RADAR)
07:41PM -23.8421 150.8328 324° Northwest 364 419 14,300 -1,920 Descending Aus ATC (RADAR)
07:43PM -23.7332 150.7469 324° Northwest 365 420 11,800 -1,920 Descending Aus ATC (RADAR)
07:43PM -23.6989 150.7198 324° Northwest 368 423 11,000 -1,920 Descending Aus ATC (RADAR)
07:44PM -23.6646 150.6929 324° Northwest 364 419 10,200 -2,100 Descending Aus ATC (RADAR)
07:44PM -23.6190 150.6568 324° Northwest 349 402 8,900 -1,680 Descending Aus ATC (RADAR)
07:45PM -23.5688 150.6172 324° Northwest 330 380 8,100 -1,800 Descending Aus ATC (RADAR)
07:45PM -23.5272 150.5845 324° Northwest 319 367 6,700 -2,100 Descending Aus ATC (RADAR)
07:46PM -23.4681 150.5376 324° Northwest 316 364 5,200 -1,200 Descending Aus ATC (RADAR)
07:47PM -23.4405 150.5163 325° Northwest 296 341 5,200  Level Aus ATC (RADAR)